Find OneWeb SL0245

NORAD ID: 48778 Int'l Des: 2021-045 Owner: ONEWEBN Country: UK Constellation: oneweb operational
別名: ONEWEB-0245 spacetrack, celestrak
LEOCIRCULARPOLARONEWEB_TYPE

現在のビュー

3D地球を読み込み中...

About OneWeb SL0245

OneWeb SL0245 (NORAD 48778) is a oneweb constellation satellite launched May 28, 2021 by ONEWEBN of UK. It operates in LEO, CIRCULAR, POLAR, ONEWEB_TYPE orbit with a mass of 148.00 kg.

次回通過

Passes for default location (London). Set your location on the main map for personalized predictions.

高度履歴

Loading altitude history...

軌道要素

1 48778U 21045M 26246.93796698 -.00000314 00000-0 -86820-3 0 9990
2 48778 87.8971 243.4950 0001881 83.3396 276.7949 13.15541517254731
Epoch: Sep 3, 2026 • Age: 10 hours

現在のステータス

高度 1204.1 km
遠地点 / 近地点 N/A
速度 7.25 km/s
衛星直下点 6.94°N, 48.04°W
打ち上げ日 May 28, 2021
運用期間 5.2 years
タイプ internet

技術仕様

分類 Payload
質量 148.00 kg
乾燥質量 140.00 kg
総質量 148.00 kg
長さ 1.30 m
直径 1.00 m
スパン 5.00 m
形状 Trapezoid+2 pan
製造者 ONEWUS
バスタイプ ARROW
フェーズステータス In Orbit
所有者/国 ONEWEBN/UK

Most Searched